Location: Jetmore Motorplex
(37.9889°N, 99.8876°W)
Time: 09:07:48
(UTC+00:00)

Cosmos 1812 - Pass Details

Date: 17 February 2020
Orbit: 517 x 521 km, 82.5° (Epoch: 27 March)

Event Time Altitude Azimuth Distance (km) Brightness Sun altitude
Rises 02:10:21 0° 351° (N) 2,656 6.5 -22.5°
Reaches altitude 10° 02:12:30 10° 349° (N) 1,763 5.5 -23.0°
Enters shadow 02:16:05 70° 305° (NW) 557 2.8 -23.7°
